JAS57 RJOS-RJCC

Flight info

Callsign JAS57
Flight time 1h 32m
Altitude 33000
Route KTE V38 KMC Y381 GOLDO Y19 MRE Y13 SIRAO Y139 NAVER
Aircraft MD81/M-SDFGIRWY/S

Departure

Time 2026-04-22 09:48
Airport Tokushima Awaodori Airport / JMSDF Tokushima Air Base (RJOS)

Arrival

Time 2026-04-22 11:21
Airport New Chitose Airport (RJCC)
Time Latitude Longitude Altitude Speed Heading
2026-04-22 09:10 34.13355 134.61855 23 ft 0 kts 13°
2026-04-22 09:38 34.13354 134.61855 23 ft 2 kts 13°
2026-04-22 09:38 34.13339 134.61850 24 ft 2 kts 13°
2026-04-22 09:39 34.13323 134.61846 24 ft 2 kts 13°
2026-04-22 09:39 34.13307 134.61841 25 ft 2 kts 13°
2026-04-22 09:39 34.13291 134.61837 25 ft 2 kts 13°
2026-04-22 09:39 34.13275 134.61833 24 ft 2 kts
2026-04-22 09:40 34.13259 134.61833 25 ft 2 kts 351°
2026-04-22 09:40 34.13243 134.61838 25 ft 2 kts 332°
2026-04-22 09:40 34.13230 134.61850 25 ft 2 kts 312°
2026-04-22 09:40 34.13221 134.61865 26 ft 0 kts 287°
2026-04-22 09:42 34.13223 134.61858 26 ft 4 kts 287°
2026-04-22 09:43 34.13234 134.61807 27 ft 7 kts 283°
2026-04-22 09:43 34.13244 134.61749 25 ft 7 kts 282°
2026-04-22 09:43 34.13254 134.61687 23 ft 8 kts 282°
2026-04-22 09:43 34.13266 134.61620 23 ft 9 kts 283°
2026-04-22 09:44 34.13286 134.61522 23 ft 15 kts 283°
2026-04-22 09:44 34.13313 134.61378 23 ft 20 kts 283°
2026-04-22 09:44 34.13347 134.61200 23 ft 23 kts 283°
2026-04-22 09:44 34.13382 134.60996 23 ft 26 kts 282°
2026-04-22 09:45 34.13424 134.60778 24 ft 26 kts 283°
2026-04-22 09:45 34.13463 134.60566 24 ft 25 kts 282°
2026-04-22 09:45 34.13501 134.60361 23 ft 25 kts 283°
2026-04-22 09:45 34.13537 134.60163 24 ft 24 kts 282°
2026-04-22 09:46 34.13573 134.59969 23 ft 23 kts 283°
2026-04-22 09:46 34.13604 134.59804 23 ft 17 kts 282°
2026-04-22 09:46 34.13615 134.59697 23 ft 11 kts 259°
2026-04-22 09:46 34.13569 134.59643 23 ft 9 kts 198°
2026-04-22 09:47 34.13511 134.59627 22 ft 8 kts 190°
2026-04-22 09:47 34.13464 134.59638 22 ft 5 kts 119°
2026-04-22 09:47 34.13460 134.59659 25 ft 0 kts 100°
2026-04-22 09:47 34.13437 134.59778 25 ft 38 kts 103°
2026-04-22 09:48 34.13335 134.60342 24 ft 101 kts 102°
2026-04-22 09:48 34.13139 134.61406 23 ft 157 kts 102°
2026-04-22 09:48 34.12837 134.62825 314 ft 180 kts 104°
2026-04-22 09:48 34.12416 134.64221 1063 ft 176 kts 123°
2026-04-22 09:49 34.11614 134.65307 1624 ft 175 kts 141°
2026-04-22 09:49 34.10572 134.66087 2048 ft 179 kts 158°
2026-04-22 09:49 34.09319 134.66450 2340 ft 198 kts 178°
2026-04-22 09:49 34.07905 134.66182 2681 ft 211 kts 202°
2026-04-22 09:50 34.06615 134.65208 2932 ft 231 kts 224°
2026-04-22 09:50 34.05584 134.63635 3255 ft 247 kts 242°
2026-04-22 09:50 34.04942 134.61690 3629 ft 259 kts 258°
2026-04-22 09:50 34.04843 134.59504 4219 ft 262 kts 281°
2026-04-22 09:51 34.05528 134.57431 4586 ft 273 kts 304°
2026-04-22 09:51 34.06564 134.55530 5310 ft 271 kts 303°
2026-04-22 09:51 34.07548 134.53591 6021 ft 271 kts 300°
2026-04-22 09:51 34.08443 134.51629 6737 ft 270 kts 296°
2026-04-22 09:52 34.09291 134.49560 7404 ft 272 kts 292°
2026-04-22 09:52 34.10055 134.47544 8244 ft 267 kts 295°
2026-04-22 09:52 34.11286 134.45750 8453 ft 295 kts 320°
2026-04-22 09:52 34.13187 134.44775 9206 ft 301 kts 347°
2026-04-22 09:53 34.15295 134.44826 9955 ft 307 kts
2026-04-22 09:53 34.17403 134.45323 10535 ft 312 kts
2026-04-22 09:53 34.19588 134.45826 10788 ft 326 kts
2026-04-22 09:53 34.21894 134.46125 10945 ft 341 kts 357°
2026-04-22 09:54 34.24313 134.46241 11149 ft 354 kts 355°
2026-04-22 09:54 34.26851 134.46254 11390 ft 366 kts 353°
2026-04-22 09:54 34.29381 134.46212 11909 ft 369 kts 352°
2026-04-22 09:54 34.31936 134.46147 12603 ft 366 kts 352°
2026-04-22 09:55 34.34477 134.46073 13355 ft 363 kts 351°
2026-04-22 09:55 34.36987 134.45997 14011 ft 361 kts 351°
2026-04-22 09:55 34.39509 134.45915 14476 ft 364 kts 351°
2026-04-22 09:55 34.42060 134.45829 14879 ft 368 kts 351°
2026-04-22 09:56 34.44632 134.45747 15298 ft 373 kts 351°
2026-04-22 09:56 34.46392 134.45696 15593 ft 375 kts 351°
2026-04-22 09:56 34.49013 134.45627 16091 ft 377 kts 351°
2026-04-22 09:56 34.51639 134.45563 16597 ft 379 kts 351°
2026-04-22 09:57 34.54281 134.45502 17061 ft 381 kts 351°
2026-04-22 09:57 34.56945 134.45441 17488 ft 385 kts 351°
2026-04-22 09:57 34.59632 134.45377 17915 ft 388 kts 351°
2026-04-22 09:57 34.62337 134.45314 18370 ft 390 kts 351°
2026-04-22 09:58 34.65065 134.45252 18778 ft 392 kts 351°
2026-04-22 09:58 34.67796 134.45190 19154 ft 395 kts 351°
2026-04-22 09:58 34.70520 134.45125 19510 ft 398 kts 351°
2026-04-22 09:58 34.73333 134.45086 19879 ft 404 kts 355°
2026-04-22 09:59 34.76116 134.45770 20238 ft 425 kts 15°
2026-04-22 09:59 34.78729 134.47577 20646 ft 439 kts 30°
2026-04-22 09:59 34.81173 134.49913 21067 ft 444 kts 33°
2026-04-22 09:59 34.83539 134.52291 21397 ft 449 kts 34°
2026-04-22 10:00 34.85956 134.54724 21734 ft 452 kts 33°
2026-04-22 10:00 34.88400 134.57150 22120 ft 455 kts 33°
2026-04-22 10:00 34.90879 134.59555 22521 ft 456 kts 32°
2026-04-22 10:00 34.93412 134.61962 22873 ft 458 kts 31°
2026-04-22 10:01 34.95919 134.64312 23182 ft 461 kts 31°
2026-04-22 10:01 34.98475 134.66692 23540 ft 464 kts 31°
2026-04-22 10:01 35.01078 134.69114 23872 ft 466 kts 31°
2026-04-22 10:01 35.03627 134.71499 24214 ft 468 kts 31°
2026-04-22 10:02 35.06215 134.73931 24502 ft 471 kts 31°
2026-04-22 10:02 35.08845 134.76408 24771 ft 474 kts 31°
2026-04-22 10:02 35.11428 134.78851 25070 ft 476 kts 31°
2026-04-22 10:02 35.14045 134.81337 25401 ft 478 kts 31°
2026-04-22 10:03 35.16715 134.83873 25692 ft 481 kts 31°
2026-04-22 10:03 35.19328 134.86353 25977 ft 483 kts 31°
2026-04-22 10:03 35.21991 134.88876 26273 ft 486 kts 31°
2026-04-22 10:03 35.24666 134.91411 26593 ft 487 kts 31°
2026-04-22 10:04 35.27342 134.93956 26847 ft 489 kts 31°
2026-04-22 10:04 35.30044 134.96524 27092 ft 491 kts 31°
2026-04-22 10:04 35.32746 134.99086 27327 ft 494 kts 31°
2026-04-22 10:04 35.35472 135.01672 27567 ft 497 kts 31°
2026-04-22 10:05 35.38215 135.04284 27863 ft 499 kts 31°
2026-04-22 10:05 35.40960 135.06902 28189 ft 500 kts 30°
2026-04-22 10:05 35.43697 135.09516 28508 ft 501 kts 30°
2026-04-22 10:05 35.46449 135.12145 28891 ft 500 kts 30°
2026-04-22 10:06 35.49105 135.14922 29283 ft 506 kts 38°
2026-04-22 10:06 35.51532 135.18074 29619 ft 511 kts 42°
2026-04-22 10:06 35.53870 135.21374 29939 ft 512 kts 43°
2026-04-22 10:06 35.56191 135.24693 30262 ft 512 kts 43°
2026-04-22 10:07 35.58522 135.27998 30574 ft 511 kts 42°
2026-04-22 10:07 35.60864 135.31263 30840 ft 510 kts 41°
2026-04-22 10:07 35.63234 135.34515 31088 ft 510 kts 40°
2026-04-22 10:07 35.65610 135.37745 31337 ft 511 kts 40°
2026-04-22 10:08 35.67999 135.40983 31606 ft 510 kts 40°
2026-04-22 10:08 35.70383 135.44220 31906 ft 509 kts 40°
2026-04-22 10:08 35.72749 135.47445 32200 ft 508 kts 40°
2026-04-22 10:08 35.75117 135.50681 32480 ft 508 kts 40°
2026-04-22 10:09 35.77471 135.53906 32749 ft 508 kts 39°
2026-04-22 10:09 35.79831 135.57153 32868 ft 510 kts 39°
2026-04-22 10:09 35.84556 135.63672 32964 ft 507 kts 39°
2026-04-22 10:10 35.89216 135.70114 32986 ft 499 kts 39°
2026-04-22 10:10 35.93799 135.76439 32990 ft 491 kts 39°
2026-04-22 10:11 35.98358 135.82728 32991 ft 493 kts 39°
2026-04-22 10:11 36.02959 135.89074 32991 ft 499 kts 39°
2026-04-22 10:12 36.07586 135.95504 32988 ft 502 kts 40°
2026-04-22 10:12 36.12198 136.01964 32988 ft 500 kts 40°
2026-04-22 10:13 36.16790 136.08387 32986 ft 497 kts 40°
2026-04-22 10:13 36.21347 136.14748 32995 ft 497 kts 40°
2026-04-22 10:14 36.25975 136.21207 32996 ft 500 kts 40°
2026-04-22 10:14 36.30596 136.27674 32995 ft 502 kts 40°
2026-04-22 10:15 36.35225 136.34166 32993 ft 503 kts 40°
2026-04-22 10:15 36.39844 136.40621 32992 ft 501 kts 37°
2026-04-22 10:16 36.44777 136.46622 32995 ft 494 kts 32°
2026-04-22 10:16 36.49851 136.52373 32996 ft 494 kts 32°
2026-04-22 10:17 36.54908 136.58180 32995 ft 496 kts 33°
2026-04-22 10:17 36.59946 136.64074 32999 ft 498 kts 33°
2026-04-22 10:18 36.64980 136.69999 32992 ft 498 kts 33°
2026-04-22 10:18 36.70019 136.75921 33003 ft 499 kts 33°
2026-04-22 10:19 36.75077 136.81875 33004 ft 499 kts 33°
2026-04-22 10:19 36.80115 136.87825 33001 ft 498 kts 33°
2026-04-22 10:20 36.85143 136.93764 32998 ft 498 kts 33°
2026-04-22 10:20 36.90158 136.99739 33000 ft 499 kts 33°
2026-04-22 10:21 36.95190 137.05725 32995 ft 500 kts 33°
2026-04-22 10:21 37.00243 137.11731 32995 ft 501 kts 33°
2026-04-22 10:22 37.05294 137.17745 32989 ft 501 kts 33°
2026-04-22 10:22 37.10334 137.23758 32991 ft 501 kts 33°
2026-04-22 10:23 37.15369 137.29781 32993 ft 500 kts 33°
2026-04-22 10:23 37.20399 137.35831 32994 ft 501 kts 33°
2026-04-22 10:24 37.25442 137.41895 32982 ft 503 kts 33°
2026-04-22 10:24 37.30495 137.47971 32979 ft 504 kts 33°
2026-04-22 10:25 37.35571 137.54085 32976 ft 505 kts 33°
2026-04-22 10:25 37.40647 137.60208 32976 ft 506 kts 33°
2026-04-22 10:26 37.45713 137.66342 32972 ft 505 kts 33°
2026-04-22 10:26 37.50759 137.72486 32972 ft 505 kts 33°
2026-04-22 10:27 37.55821 137.78644 32973 ft 506 kts 32°
2026-04-22 10:27 37.60891 137.84808 32975 ft 507 kts 32°
2026-04-22 10:28 37.65975 137.91000 32975 ft 509 kts 32°
2026-04-22 10:28 37.71072 137.97221 32967 ft 510 kts 32°
2026-04-22 10:29 37.76171 138.03469 32974 ft 511 kts 32°
2026-04-22 10:29 37.81261 138.09743 32968 ft 510 kts 32°
2026-04-22 10:30 37.86343 138.16001 32977 ft 510 kts 32°
2026-04-22 10:30 37.91427 138.22256 32975 ft 510 kts 31°
2026-04-22 10:31 37.96520 138.28531 32977 ft 511 kts 31°
2026-04-22 10:31 38.01621 138.34831 32977 ft 512 kts 31°
2026-04-22 10:32 38.06756 138.41069 32976 ft 504 kts 25°
2026-04-22 10:32 38.09530 138.43676 32976 ft 490 kts 18°
2026-04-22 10:32 38.12379 138.45992 32982 ft 485 kts 16°
2026-04-22 10:33 38.18132 138.50489 32978 ft 485 kts 16°
2026-04-22 10:33 38.23823 138.55040 32974 ft 488 kts 17°
2026-04-22 10:34 38.29531 138.59737 32970 ft 489 kts 17°
2026-04-22 10:34 38.35233 138.64470 32976 ft 489 kts 17°
2026-04-22 10:35 38.40927 138.69188 32975 ft 487 kts 17°
2026-04-22 10:35 38.46604 138.73892 32975 ft 486 kts 17°
2026-04-22 10:36 38.52266 138.78596 32971 ft 485 kts 17°
2026-04-22 10:36 38.57922 138.83289 32975 ft 485 kts 16°
2026-04-22 10:37 38.66414 138.90347 32973 ft 485 kts 16°
2026-04-22 10:38 38.72072 138.95063 32969 ft 485 kts 16°
2026-04-22 10:38 38.77726 138.99785 32966 ft 485 kts 16°
2026-04-22 10:39 38.83375 139.04527 32970 ft 486 kts 16°
2026-04-22 10:39 38.89033 139.09284 32967 ft 485 kts 16°
2026-04-22 10:40 38.93761 139.13257 32974 ft 486 kts 16°
2026-04-22 10:40 38.99380 139.17981 32970 ft 485 kts 16°
2026-04-22 10:41 39.05014 139.22727 32970 ft 484 kts 16°
2026-04-22 10:41 39.10634 139.27470 32967 ft 483 kts 16°
2026-04-22 10:42 39.16245 139.32224 32967 ft 482 kts 16°
2026-04-22 10:42 39.21852 139.36973 32969 ft 484 kts 17°
2026-04-22 10:43 39.27496 139.41772 32962 ft 486 kts 17°
2026-04-22 10:43 39.33145 139.46589 32966 ft 486 kts 17°
2026-04-22 10:44 39.38781 139.51402 32965 ft 484 kts 17°
2026-04-22 10:44 39.44395 139.56197 32968 ft 482 kts 17°
2026-04-22 10:45 39.49974 139.60970 32963 ft 481 kts 17°
2026-04-22 10:45 39.55553 139.65765 32959 ft 482 kts 17°
2026-04-22 10:46 39.61142 139.70572 32959 ft 483 kts 18°
2026-04-22 10:46 39.66739 139.75390 32952 ft 483 kts 18°
2026-04-22 10:47 39.72342 139.80224 32952 ft 483 kts 18°
2026-04-22 10:47 39.77932 139.85060 32955 ft 481 kts 18°
2026-04-22 10:48 39.83474 139.89871 32956 ft 480 kts 18°
2026-04-22 10:48 39.88997 139.94739 32952 ft 479 kts 18°
2026-04-22 10:49 39.94521 139.99615 32952 ft 480 kts 18°
2026-04-22 10:49 40.00066 140.04500 32944 ft 481 kts 18°
2026-04-22 10:50 40.05614 140.09395 32931 ft 483 kts 19°
2026-04-22 10:50 40.11185 140.14323 32925 ft 483 kts 19°
2026-04-22 10:51 40.16740 140.19254 32919 ft 482 kts 19°
2026-04-22 10:51 40.22237 140.24156 32914 ft 480 kts 19°
2026-04-22 10:52 40.27754 140.29077 32919 ft 480 kts 19°
2026-04-22 10:52 40.33294 140.34007 32913 ft 482 kts 19°
2026-04-22 10:53 40.38849 140.38966 32917 ft 483 kts 19°
2026-04-22 10:53 40.44393 140.43937 32917 ft 482 kts 20°
2026-04-22 10:54 40.49934 140.48905 32916 ft 483 kts 20°
2026-04-22 10:54 40.55500 140.53909 32909 ft 485 kts 20°
2026-04-22 10:55 40.61067 140.58932 32915 ft 486 kts 20°
2026-04-22 10:55 40.66645 140.63969 32912 ft 486 kts 20°
2026-04-22 10:56 40.72216 140.69004 32913 ft 485 kts 21°
2026-04-22 10:56 40.75061 140.71214 32916 ft 465 kts
2026-04-22 10:56 40.78015 140.72818 32915 ft 455 kts
2026-04-22 10:57 40.83962 140.75584 32915 ft 453 kts
2026-04-22 10:57 40.89885 140.78329 32903 ft 454 kts
2026-04-22 10:58 40.95831 140.81221 32901 ft 456 kts
2026-04-22 10:58 41.01759 140.84191 32886 ft 455 kts
2026-04-22 10:59 41.07672 140.87150 32859 ft 454 kts
2026-04-22 10:59 41.10640 140.88625 32522 ft 458 kts
2026-04-22 10:59 41.13625 140.90104 32095 ft 456 kts
2026-04-22 10:59 41.16569 140.91577 31667 ft 449 kts
2026-04-22 11:00 41.19467 140.93033 31202 ft 443 kts
2026-04-22 11:00 41.22324 140.94466 30741 ft 437 kts
2026-04-22 11:00 41.25161 140.95884 30294 ft 432 kts
2026-04-22 11:00 41.27955 140.97276 29831 ft 427 kts
2026-04-22 11:01 41.30728 140.98656 29287 ft 422 kts
2026-04-22 11:01 41.33463 141.00011 28742 ft 417 kts
2026-04-22 11:01 41.36166 141.01342 28218 ft 413 kts
2026-04-22 11:01 41.38845 141.02656 27636 ft 409 kts
2026-04-22 11:02 41.41517 141.03962 27043 ft 407 kts
2026-04-22 11:02 41.44158 141.05255 26469 ft 404 kts
2026-04-22 11:02 41.46790 141.06545 25909 ft 401 kts
2026-04-22 11:02 41.49397 141.07828 25348 ft 399 kts
2026-04-22 11:03 41.51992 141.09111 24801 ft 396 kts
2026-04-22 11:03 41.54557 141.10382 24271 ft 393 kts
2026-04-22 11:03 41.57115 141.11650 23742 ft 390 kts
2026-04-22 11:03 41.59642 141.12904 23180 ft 387 kts
2026-04-22 11:04 41.62157 141.14152 22551 ft 384 kts
2026-04-22 11:04 41.64655 141.15391 21949 ft 381 kts
2026-04-22 11:04 41.67131 141.16620 21360 ft 378 kts
2026-04-22 11:04 41.69582 141.17839 20797 ft 374 kts 10°
2026-04-22 11:05 41.72005 141.19059 20247 ft 371 kts 10°
2026-04-22 11:05 41.74403 141.20275 19713 ft 368 kts 11°
2026-04-22 11:05 41.76787 141.21487 19180 ft 364 kts 11°
2026-04-22 11:05 41.79150 141.22688 18651 ft 361 kts 11°
2026-04-22 11:06 41.81491 141.23878 18131 ft 358 kts 11°
2026-04-22 11:06 41.83807 141.25052 17562 ft 355 kts 11°
2026-04-22 11:06 41.86112 141.26221 16961 ft 352 kts 11°
2026-04-22 11:06 41.88397 141.27381 16394 ft 349 kts 12°
2026-04-22 11:07 41.90657 141.28528 15832 ft 346 kts 12°
2026-04-22 11:07 41.92904 141.29672 15286 ft 344 kts 12°
2026-04-22 11:07 41.95132 141.30807 14743 ft 341 kts 12°
2026-04-22 11:07 41.97257 141.32256 14215 ft 351 kts 29°
2026-04-22 11:08 41.99084 141.34393 13748 ft 353 kts 37°
2026-04-22 11:08 42.00842 141.36713 13289 ft 348 kts 38°
2026-04-22 11:08 42.02522 141.38964 12817 ft 343 kts 38°
2026-04-22 11:08 42.04192 141.41206 12409 ft 337 kts 38°
2026-04-22 11:09 42.05839 141.43413 12062 ft 331 kts 37°
2026-04-22 11:09 42.07471 141.45573 11723 ft 328 kts 37°
2026-04-22 11:09 42.09106 141.47704 11374 ft 326 kts 37°
2026-04-22 11:09 42.10743 141.49817 11034 ft 325 kts 36°
2026-04-22 11:10 42.12382 141.51903 10700 ft 323 kts 33°
2026-04-22 11:10 42.14235 141.53481 10374 ft 310 kts 16°
2026-04-22 11:10 42.16214 141.54595 10043 ft 307 kts 13°
2026-04-22 11:10 42.18194 141.55630 9713 ft 306 kts 12°
2026-04-22 11:11 42.20180 141.56659 9362 ft 305 kts 12°
2026-04-22 11:11 42.22159 141.57679 9007 ft 303 kts 12°
2026-04-22 11:11 42.24118 141.58696 8659 ft 302 kts 13°
2026-04-22 11:11 42.26071 141.59728 8317 ft 300 kts 13°
2026-04-22 11:12 42.28010 141.60770 7966 ft 299 kts 13°
2026-04-22 11:12 42.29933 141.61817 7626 ft 298 kts 14°
2026-04-22 11:12 42.31853 141.62873 7288 ft 297 kts 14°
2026-04-22 11:12 42.33749 141.63924 6929 ft 293 kts 14°
2026-04-22 11:13 42.35616 141.64966 6569 ft 287 kts 14°
2026-04-22 11:13 42.37449 141.65991 6218 ft 282 kts 14°
2026-04-22 11:13 42.39250 141.66997 5846 ft 278 kts 14°
2026-04-22 11:13 42.41031 141.67988 5476 ft 275 kts 14°
2026-04-22 11:14 42.42787 141.68959 5115 ft 272 kts 14°
2026-04-22 11:14 42.44523 141.69922 4758 ft 266 kts 15°
2026-04-22 11:14 42.46217 141.70864 4392 ft 262 kts 15°
2026-04-22 11:14 42.47887 141.71794 4053 ft 257 kts 15°
2026-04-22 11:15 42.49523 141.72707 3757 ft 251 kts 15°
2026-04-22 11:15 42.51122 141.73589 3501 ft 244 kts 13°
2026-04-22 11:15 42.52728 141.73884 3249 ft 226 kts 348°
2026-04-22 11:15 42.54258 141.73589 3052 ft 219 kts 343°
2026-04-22 11:16 42.55741 141.73237 2990 ft 212 kts 345°
2026-04-22 11:16 42.57179 141.72955 2914 ft 208 kts 346°
2026-04-22 11:16 42.58616 141.72716 2858 ft 205 kts 347°
2026-04-22 11:16 42.60025 141.72481 2805 ft 204 kts 347°
2026-04-22 11:17 42.61430 141.72229 2754 ft 203 kts 347°
2026-04-22 11:17 42.62816 141.71983 2695 ft 201 kts 347°
2026-04-22 11:17 42.64175 141.71757 2644 ft 190 kts 347°
2026-04-22 11:17 42.65431 141.71551 2379 ft 182 kts 347°
2026-04-22 11:18 42.66639 141.71319 2138 ft 168 kts 347°
2026-04-22 11:18 42.67750 141.71123 1889 ft 155 kts 347°
2026-04-22 11:18 42.68794 141.70936 1632 ft 151 kts 348°
2026-04-22 11:18 42.69834 141.70751 1408 ft 148 kts 349°
2026-04-22 11:19 42.70850 141.70590 1145 ft 147 kts 350°
2026-04-22 11:19 42.71856 141.70412 951 ft 145 kts 351°
2026-04-22 11:19 42.72848 141.70221 750 ft 143 kts 350°
2026-04-22 11:19 42.73826 141.70036 561 ft 142 kts 353°
2026-04-22 11:20 42.74793 141.69897 362 ft 138 kts 353°
2026-04-22 11:20 42.75748 141.69730 183 ft 139 kts 352°
2026-04-22 11:20 42.76706 141.69567 70 ft 135 kts 352°
2026-04-22 11:20 42.77543 141.69419 65 ft 99 kts 351°
2026-04-22 11:21 42.78056 141.69320 61 ft 56 kts 352°
2026-04-22 11:21 42.78296 141.69196 67 ft 18 kts 324°
2026-04-22 11:21 42.78367 141.69125 60 ft 7 kts 324°
2026-04-22 11:21 42.78409 141.69082 62 ft 8 kts 321°
2026-04-22 11:22 42.78443 141.69022 68 ft 8 kts 285°
2026-04-22 11:22 42.78440 141.68937 69 ft 10 kts 264°
2026-04-22 11:22 42.78432 141.68833 63 ft 12 kts 262°
2026-04-22 11:22 42.78420 141.68720 63 ft 12 kts 262°
2026-04-22 11:23 42.78409 141.68602 62 ft 12 kts 262°
2026-04-22 11:23 42.78422 141.68494 65 ft 12 kts 290°
2026-04-22 11:23 42.78447 141.68431 65 ft 6 kts 304°
2026-04-22 11:23 42.78472 141.68383 65 ft 7 kts 306°
2026-04-22 11:24 42.78507 141.68338 64 ft 7 kts 344°
2026-04-22 11:24 42.78554 141.68354 64 ft 9 kts
2026-04-22 11:24 42.78594 141.68305 65 ft 8 kts 295°
2026-04-22 11:24 42.78616 141.68244 63 ft 1 kts 295°